Skip Page Navigation
NASA JPL Caltech
NASA Logo - Jet Propulsion Laboratory + View the NASA Portal
+ Center for Near-Earth Object Studies
JPL Home Earth Solar System Stars & Galaxies Technology
JPL Solar System Dynamics
BODIES ORBITS EPHEMERIDES TOOLS PHYSICAL DATA DISCOVERY FAQ SITE MAP
JPL Small-Body Database Browser
Search: [ help ]  
3357 Tolstikov (1984 FT)
Classification: Main-belt Asteroid          SPK-ID: 2003357
Ephemeris | Orbit Diagram | Orbital Elements | Mission Design | Physical Parameters | Discovery Circumstances | Close-Approach Data ]

[ show orbit diagram ]
Orbital Elements at Epoch 2459000.5 (2020-May-31.0) TDB
Reference: JPL 37 (heliocentric ecliptic J2000)
 Element Value Uncertainty (1-sigma)   Units 
e .05525511120091076 3.1298e-08  
a 3.021665936940729 1.533e-08 au
q 2.854703449583065 9.7545e-08 au
i 11.25840631175148 3.8531e-06 deg
node 145.3527049738482 1.773e-05 deg
peri 59.78977599660745 3.9648e-05 deg
M 305.4178357896712 3.6013e-05 deg
tp 2459291.381667396737
(2021-Mar-17.88166740)
0.00019247 TDB
period 1918.527815410607
5.25
1.46e-05
3.997e-08
d
yr
n .187643878346873 1.428e-09 deg/d
Q 3.188628424298393 1.6177e-08 au
  Orbit Determination Parameters
   # obs. used (total)      2575  
   data-arc span      24944 days (68.29 yr)  
   first obs. used      1952-02-28  
   last obs. used      2020-06-14  
   planetary ephem.      DE431  
   SB-pert. ephem.      SB431-N16  
   condition code      0  
   norm. resid. RMS      .45408  
   source      ORB  
   producer      Otto Matic  
   solution date      2020-Jun-23 15:56:26  

Additional Information
 Earth MOID = 1.87294 au 
 Jupiter MOID = 1.82402 au 
 T_jup = 3.214 
[ show covariance matrix ]

Ephemeris | Orbit Diagram | Orbital Elements | Mission Design | Physical Parameters | Discovery Circumstances | Close-Approach Data ]

Physical Parameter Table
Parameter Symbol Value Units Sigma Reference Notes
absolute magnitude H 11.8   n/a MPO458863  
diameter diameter 16.360 km 0.086 urn:nasa:pds:neowise_diameters_albedos::2.0[mainbelt] (http://adsabs.harvard.edu/abs/2014ApJ...791..121M)  
geometric albedo albedo 0.151   0.015 urn:nasa:pds:neowise_diameters_albedos::2.0[mainbelt] (http://adsabs.harvard.edu/abs/2014ApJ...791..121M)  

3357 Tolstikov (1984 FT)          Discovered 1984-Mar-21 by Mrkos, A. at Klet
Reference: DISCOVERY.DBLast Updated: 2003-08-29

[ show close-approach data ]
Alternate Designations
 1984 FT = 1952 DP3 = 1968 FD = 1973 EM 
Ephemeris | Orbit Diagram | Orbital Elements | Mission Design | Physical Parameters | Discovery Circumstances | Close-Approach Data ]
ABOUT SSD CREDITS/AWARDS PRIVACY/COPYRIGHT GLOSSARY LINKS
FirstGov 2020-Aug-04 18:09 UT
(server date/time)  
NASA Home Page
Site Manager:   Ryan S. Park
Webmaster  Alan B. Chamberlin